Regional Weather Roundup
Issued by NWS Albany, NY

Home | Current Version | Previous Version | Text Only | Print | Product List | Glossary On
Versions: 1 2 3 4 5 6 7 8 9 10 11 12 13 14 15 16 17 18 19 20 21 22 23 24 25 26 27 28 29 30 31 32 33 34 35 36 37 38 39 40 41 42 43 44 45 46 47 48 49 50
553
ASUS41 KALY 281310
RWRALY

NEW YORK STATE HOURLY WEATHER ROUNDUP
NATIONAL WEATHER SERVICE ALBANY NY
900 AM EDT TUE MAR 28 2017

NOTE: "FAIR" INDICATES FEW OR NO CLOUDS BELOW 12,000 FEET WITH NO
SIGNIFICANT WEATHER AND/OR NO OBSTRUCTIONS TO VISIBILITY.

NYZ032-033-038>043-046>054-057>066-NYZ062>081-082-084-281400-
EAST


CITY           SKY/WX    TMP DP  RH WIND       PRES   REMARKS
ALBANY         CLOUDY    44  40  85 CALM      29.95S FOG
GLENS FALLS    CLOUDY    40  38  93 CALM      29.94S FOG
POUGHKEEPSIE   CLOUDY    43  42  97 SE5       29.95S FOG
NEWBURGH       LGT RAIN  43  43 100 CALM      29.96S FOG
MONTGOMERY     LGT RAIN  44  42  93 CALM      29.93F FOG
WHITE PLAINS   DRZL/FOG  41  39  93 E7        29.95F VSB 1/2
ISLIP          CLOUDY    44  43  96 E12       29.96F
NEW YORK CITY  CLOUDY    44  40  85 NE15      29.95F FOG
CENTRAL PARK   CLOUDY    44  42  93 E8        29.97F FOG
$$

NYZ005>009-017-018-044>046-055-056-281400-
CENTRAL


CITY           SKY/WX    TMP DP  RH WIND       PRES   REMARKS
FULTON         CLOUDY    45  42  89 CALM      29.91R
SYRACUSE       CLOUDY    42  41  96 CALM      29.91R
ROME           CLOUDY    42  41  96 SE7       29.92F
ELMIRA         LGT RAIN  48  47  96 CALM      29.89R VSB 1
BINGHAMTON     LGT RAIN  45  45 100 CALM      29.88S VSB<1/4
MONTICELLO     CLOUDY    45  43  93 NE5       29.93S VSB<1/4
$$

NYZ026>034-041>043-087-281400-
NORTH


CITY           SKY/WX    TMP DP  RH WIND       PRES   REMARKS
WATERTOWN      CLOUDY    45  45 100 W3        29.90S FOG
FORT DRUM      NOT AVBL
MASSENA        LGT RAIN  37  37 100 W5        29.92R VSB 1   WCI  33
SARANAC LAKE   FOG       43  43 100 SW5       29.87S VSB 1/2
PLATTSBURGH    CLOUDY    39  37  92 CALM      29.89S
$$

NYZ001>004-010>016-019>021-085-281400-
WEST


CITY           SKY/WX    TMP DP  RH WIND       PRES   REMARKS
NIAGARA FALLS  CLOUDY    46  41  82 N10       29.93S
BUFFALO        CLOUDY    46  44  93 N6        29.93R FOG
DUNKIRK        FOG       45  44  97 CALM      29.93S VSB 1/2
JAMESTOWN      CLOUDY    46  43  87 N9        29.91R
WELLSVILLE     FOG       46  44  93 N6        29.91R VSB<1/4
ROCHESTER      FOG       49  48  97 N8        29.92S VSB 1/8
PENN YAN       CLOUDY    50  46  86 CALM      29.91R
$$

             KEY
       WCI = WIND CHILL INDEX
       VSB = VISIBILITY
       HX  = HEAT INDEX
$$




USA.gov is the U.S. government's official web portal to all federal, state and local government web resources and services.